KC5TIL-3 Weather Reports


Display with metric or nautical units.
time (UTC)temp
F
wind
direction
speed
MPH
gust
MPH
rain 1hr
in
rain 24hr
in
rain mn
in
humidity
%
barometer
mb
20260510103814 73 139 7.0 13.0 0.00 0.00 0.00 51 1010.8
20260510103311 73 118 10.0 13.0 0.00 0.00 0.00 54 1010.8
20260510102306 75 191 8.0 15.0 0.00 0.00 0.00 59 1010.8
20260510101305 75 96 7.0 10.0 0.00 0.00 0.00 57 1010.8
20260510095803 75 246 4.0 10.0 0.00 0.00 0.00 57 1009.8
20260510095306 74 158 4.0 8.0 0.00 0.00 0.00 58 1009.8
20260510094306 74 79 4.0 7.0 0.00 0.00 0.00 61 1009.8
20260510093808 74 59 6.0 7.0 0.00 0.00 0.00 62 1009.8
20260510092808 74 85 5.0 8.0 0.00 0.00 0.00 63 1009.8
20260510092256 73 85 4.0 5.0 0.00 0.00 0.00 63 1008.8
20260510090759 73 72 3.0 5.0 0.00 0.00 0.00 62 1008.8
20260510085759 73 63 0.0 6.0 0.00 0.00 0.00 60 1008.8
20260510085305 73 81 3.0 8.0 0.00 0.00 0.00 60 1008.8
20260510084804 73 39 4.0 8.0 0.00 0.00 0.00 59 1008.8
20260510084301 73 43 6.0 7.0 0.00 0.00 0.00 58 1008.8
20260510083800 73 17 6.0 7.0 0.00 0.00 0.00 58 1008.8
20260510083302 73 37 6.0 7.0 0.00 0.00 0.00 57 1008.8
20260510082759 73 330 6.0 7.0 0.00 0.00 0.00 56 1008.8
20260510082301 73 19 5.0 5.0 0.00 0.00 0.00 55 1007.8
20260510081803 73 23 4.0 3.0 0.00 0.00 0.00 54 1007.8
20260510075804 74 124 5.0 7.0 0.00 0.00 0.00 51 1007.8
20260510074307 74 138 4.0 5.0 0.00 0.00 0.00 47 1007.8
20260510072809 74 131 5.0 9.0 0.00 0.00 0.00 44 1007.8
20260510071302 74 117 5.0 8.0 0.00 0.00 0.00 42 1007.8
20260510065755 75 80 0.0 7.0 0.00 0.00 0.00 41 1008.8
20260510065257 75 84 3.0 6.0 0.00 0.00 0.00 40 1008.8
20260510064248 75 27 3.0 10.0 0.00 0.00 0.00 38 1008.8
20260510063252 75 64 7.0 12.0 0.00 0.00 0.00 38 1007.8
20260510062750 76 17 9.0 4.0 0.00 0.00 0.00 36 1007.8
20260510062252 76 167 0.0 5.0 0.00 0.00 0.00 36 1006.8
20260510061754 76 206 0.0 8.0 0.00 0.00 0.00 35 1006.8
20260510060208 77 137 7.0 10.0 0.00 0.00 0.00 32 1006.8
20260510055755 77 145 3.0 8.0 0.00 0.00 0.00 33 1006.8
20260510055258 77 144 6.0 8.0 0.00 0.00 0.00 33 1006.8
20260510054759 77 122 6.0 10.0 0.00 0.00 0.00 33 1006.8
20260510054258 77 186 6.0 10.0 0.00 0.00 0.00 32 1006.8
20260510053301 77 137 7.0 10.0 0.00 0.00 0.00 32 1006.8
20260510052258 77 138 5.0 11.0 0.00 0.00 0.00 32 1006.8
20260510051759 78 169 7.0 11.0 0.00 0.00 0.00 32 1006.8
20260510051257 78 124 8.0 15.0 0.00 0.00 0.00 31 1006.8
20260510050759 78 132 9.0 13.0 0.00 0.00 0.00 31 1005.8
20260510050302 78 134 10.0 12.0 0.00 0.00 0.00 31 1005.8
20260510045800 78 129 9.0 11.0 0.00 0.00 0.00 31 1005.8
20260510045257 78 113 7.0 15.0 0.00 0.00 0.00 31 1006.8
20260510044759 78 117 7.0 14.0 0.00 0.00 0.00 30 1006.8
20260510044258 78 141 11.0 11.0 0.00 0.00 0.00 30 1006.8
20260510043801 78 133 8.0 10.0 0.00 0.00 0.00 30 1006.8
20260510043302 78 121 6.0 10.0 0.00 0.00 0.00 29 1006.8
20260510041805 78 152 6.0 11.0 0.00 0.00 0.00 27 1006.8
20260510041303 79 133 7.0 12.0 0.00 0.00 0.00 27 1006.8
20260510040805 79 133 8.0 12.0 0.00 0.00 0.00 27 1006.8
20260510040306 79 154 9.0 12.0 0.00 0.00 0.00 27 1006.8
20260510035801 79 128 9.0 11.0 0.00 0.00 0.00 27 1006.8
20260510035306 79 128 8.0 11.0 0.00 0.00 0.00 26 1006.8
20260510034804 79 122 9.0 10.0 0.00 0.00 0.00 26 1006.8
20260510034303 79 154 8.0 11.0 0.00 0.00 0.00 26 1006.8
20260510033805 79 131 8.0 10.0 0.00 0.00 0.00 26 1006.8
20260510033307 79 127 8.0 12.0 0.00 0.00 0.00 26 1006.8
20260510032806 80 119 9.0 13.0 0.00 0.00 0.00 26 1006.8
20260510032307 80 111 8.0 12.0 0.00 0.00 0.00 26 1006.8
20260510031809 80 130 9.0 12.0 0.00 0.00 0.00 25 1006.8
20260510031308 80 121 8.0 10.0 0.00 0.00 0.00 26 1006.8
20260510030811 80 120 8.0 11.0 0.00 0.00 0.00 26 1006.8
20260510030312 81 108 7.0 12.0 0.00 0.00 0.00 25 1006.8
20260510025312 81 123 8.0 12.0 0.00 0.00 0.00 25 1006.8
20260510024810 81 104 10.0 11.0 0.00 0.00 0.00 24 1006.8
20260510024308 81 113 7.0 11.0 0.00 0.00 0.00 23 1006.8
20260510023810 81 121 6.0 12.0 0.00 0.00 0.00 21 1006.8
20260510023312 82 123 9.0 10.0 0.00 0.00 0.00 20 1006.8
20260510022313 83 133 5.0 7.0 0.00 0.00 0.00 19 1005.8
20260510021814 83 139 6.0 6.0 0.00 0.00 0.00 19 1005.8
20260510021313 83 143 4.0 7.0 0.00 0.00 0.00 19 1005.8
20260510020815 83 127 4.0 8.0 0.00 0.00 0.00 19 1005.8
20260510020317 84 145 5.0 7.0 0.00 0.00 0.00 19 1005.8
20260510015815 84 138 4.0 7.0 0.00 0.00 0.00 18 1005.8
20260510015317 84 142 5.0 7.0 0.00 0.00 0.00 18 1005.8
20260510014819 84 146 4.0 8.0 0.00 0.00 0.00 18 1005.8
20260510013820 85 134 6.0 7.0 0.00 0.00 0.00 18 1005.8
20260510013321 85 136 5.0 7.0 0.00 0.00 0.00 18 1005.8
20260510012322 85 128 6.0 8.0 0.00 0.00 0.00 16 1005.8
20260510011824 86 132 5.0 8.0 0.00 0.00 0.00 16 1005.8
20260510011322 86 128 6.0 6.0 0.00 0.00 0.00 16 1005.8
20260510010824 86 129 4.0 7.0 0.00 0.00 0.00 16 1005.8
20260510010326 87 145 4.0 6.0 0.00 0.00 0.00 16 1005.8
20260510005327 87 180 4.0 7.0 0.00 0.00 0.00 15 1005.8
20260510004829 87 213 5.0 6.0 0.00 0.00 0.00 15 1005.8
20260510004327 88 216 4.0 7.0 0.00 0.00 0.00 15 1005.8
20260510003824 88 156 4.0 7.0 0.00 0.00 0.00 15 1005.8
20260510002825 88 131 5.0 7.0 0.00 0.00 0.00 15 1005.8
20260510002327 88 122 5.0 8.0 0.00 0.00 0.00 15 1005.8
20260510001327 88 110 7.0 8.0 0.00 0.00 0.00 15 1005.8
20260509235825 88 117 6.0 10.0 0.00 0.00 0.00 15 1005.8
20260509234328 88 125 7.0 8.0 0.00 0.00 0.00 15 1005.8
20260509233829 89 130 6.0 9.0 0.00 0.00 0.00 15 1005.8
20260509232829 89 114 6.0 8.0 0.00 0.00 0.00 15 1005.8
20260509232331 88 114 6.0 8.0 0.00 0.00 0.00 15 1005.8
20260509231327 89 147 4.0 8.0 0.00 0.00 0.00 15 1005.8
20260509230829 90 163 4.0 7.0 0.00 0.00 0.00 15 1005.8
20260509230312 90 123 4.0 6.0 0.00 0.00 0.00 15 1005.8
20260509225810 90 113 5.0 8.0 0.00 0.00 0.00 15 1005.8
20260509225311 89 118 6.0 8.0 0.00 0.00 0.00 15 1005.8
20260509224307 90 113 4.0 7.0 0.00 0.00 0.00 15 1005.8
20260509223808 90 336 3.0 4.0 0.00 0.00 0.00 15 1005.8
20260509223311 90 211 0.0 5.0 0.00 0.00 0.00 15 1005.8
20260509222809 89 207 3.0 5.0 0.00 0.00 0.00 15 1005.8
20260509222311 91 205 4.0 7.0 0.00 0.00 0.00 12 1005.8
20260509221813 91 135 3.0 5.0 0.00 0.00 0.00 14 1005.8
20260509220813 90 192 0.0 7.0 0.00 0.00 0.00 14 1005.8
20260509215814 90 130 4.0 7.0 0.00 0.00 0.00 15 1005.8
20260509215311 90 109 0.0 5.0 0.00 0.00 0.00 15 1005.8
20260509214813 88 34 4.0 7.0 0.00 0.00 0.00 12 1005.8
20260509214311 88 21 4.0 7.0 0.00 0.00 0.00 13 1005.8
20260509213808 88 16 4.0 6.0 0.00 0.00 0.00 15 1005.8
20260509213311 89 49 4.0 6.0 0.00 0.00 0.00 15 1005.8
20260509212809 89 34 4.0 6.0 0.00 0.00 0.00 15 1005.8
20260509211758 88 5 6.0 4.0 0.00 0.00 0.00 15 1005.8
20260509211257 89 291 0.0 5.0 0.00 0.00 0.00 15 1005.8
20260509210744 88 4 3.0 7.0 0.00 0.00 0.00 13 1006.8
20260509210246 88 351 3.0 7.0 0.00 0.00 0.00 13 1006.8
20260509205745 88 15 5.0 7.0 0.00 0.00 0.00 13 1006.8
20260509204749 91 307 3.0 4.0 0.00 0.00 0.00 12 1006.8
20260509204247 90 307 0.0 5.0 0.00 0.00 0.00 12 1006.8
20260509203749 90 308 0.0 5.0 0.00 0.00 0.00 12 1006.8
20260509203251 89 312 3.0 4.0 0.00 0.00 0.00 12 1006.8
20260509202750 88 303 4.0 7.0 0.00 0.00 0.00 13 1006.8
20260509201248 88 0 4.0 5.0 0.00 0.00 0.00 13 1006.8
20260509200749 88 8 4.0 6.0 0.00 0.00 0.00 15 1006.8
20260509200252 88 69 4.0 9.0 0.00 0.00 0.00 15 1006.8
20260509195750 87 134 7.0 7.0 0.00 0.00 0.00 15 1006.8
20260509194252 87 309 0.0 4.0 0.00 0.00 0.00 15 1007.8
20260509192755 87 17 6.0 7.0 0.00 0.00 0.00 18 1007.8
20260509191759 88 138 4.0 5.0 0.00 0.00 0.00 18 1007.8
20260509191257 87 6 4.0 7.0 0.00 0.00 0.00 18 1007.8
20260509190256 86 33 4.0 6.0 0.00 0.00 0.00 19 1007.8
20260509185750 87 40 4.0 7.0 0.00 0.00 0.00 18 1007.8
20260509185252 86 262 5.0 7.0 0.00 0.00 0.00 19 1007.8
20260509184753 86 119 3.0 7.0 0.00 0.00 0.00 19 1007.8
20260509184253 86 55 4.0 9.0 0.00 0.00 0.00 19 1007.8
20260509183256 86 316 4.0 9.0 0.00 0.00 0.00 19 1007.8
20260509182751 86 169 3.0 10.0 0.00 0.00 0.00 19 1007.8
20260509182252 85 286 4.0 7.0 0.00 0.00 0.00 19 1007.8
20260509181753 84 26 4.0 6.0 0.00 0.00 0.00 20 1007.8
20260509180256 82 17 5.0 9.0 0.00 0.00 0.00 21 1007.8
20260509175745 83 17 4.0 7.0 0.00 0.00 0.00 20 1007.8
20260509174749 85 13 0.0 4.0 0.00 0.00 0.00 20 1007.8
20260509174247 83 8 0.0 7.0 0.00 0.00 0.00 21 1007.8
20260509173251 82 22 6.0 7.0 0.00 0.00 0.00 21 1008.8
20260509172740 83 328 4.0 8.0 0.00 0.00 0.00 22 1008.8
20260509171739 82 15 4.0 7.0 0.00 0.00 0.00 22 1008.8
20260509170241 81 321 5.0 7.0 0.00 0.00 0.00 21 1008.8
20260509165242 81 332 3.0 8.0 0.00 0.00 0.00 25 1008.8
20260509164744 81 330 4.0 7.0 0.00 0.00 0.00 25 1008.8
20260509164228 80 1 5.0 7.0 0.00 0.00 0.00 28 1008.8
20260509163222 79 286 4.0 6.0 0.00 0.00 0.00 30 1008.8
20260509162720 80 296 4.0 6.0 0.00 0.00 0.00 28 1008.8
20260509161720 80 332 3.0 7.0 0.00 0.00 0.00 28 1008.8
20260509160714 79 325 0.0 6.0 0.00 0.00 0.00 30 1008.8
20260509160216 78 273 4.0 6.0 0.00 0.00 0.00 29 1008.8
20260509154718 78 340 4.0 9.0 0.00 0.00 0.00 30 1008.8
20260509153719 77 27 5.0 7.0 0.00 0.00 0.00 31 1008.8
20260509153220 76 13 5.0 9.0 0.00 0.00 0.00 33 1008.8
20260509152221 75 36 7.0 10.0 0.00 0.00 0.00 35 1008.8
20260509151718 76 342 6.0 10.0 0.00 0.00 0.00 36 1008.8
20260509150718 75 351 5.0 9.0 0.00 0.00 0.00 34 1008.8
20260509145719 75 27 7.0 8.0 0.00 0.00 0.00 35 1008.8
20260509145221 75 282 3.0 7.0 0.00 0.00 0.00 36 1008.8
20260509144722 74 9 4.0 10.0 0.00 0.00 0.00 35 1008.8
20260509143723 74 294 5.0 9.0 0.00 0.00 0.00 39 1008.8
20260509143225 74 356 6.0 8.0 0.00 0.00 0.00 41 1008.8
20260509142723 74 309 4.0 7.0 0.00 0.00 0.00 42 1008.8
20260509142225 74 320 4.0 6.0 0.00 0.00 0.00 45 1008.8
20260509141727 73 293 3.0 7.0 0.00 0.00 0.00 47 1008.8
20260509140718 73 291 4.0 6.0 0.00 0.00 0.00 48 1008.8
20260509135718 73 12 4.0 6.0 0.00 0.00 0.00 49 1008.8
20260509135219 72 250 4.0 7.0 0.00 0.00 0.00 51 1008.8
20260509134210 72 351 4.0 9.0 0.00 0.00 0.00 51 1008.8
20260509133712 71 295 4.0 7.0 0.00 0.00 0.00 50 1008.8
20260509133214 72 292 3.0 6.0 0.00 0.00 0.00 51 1008.8
20260509132713 71 330 3.0 5.0 0.00 0.00 0.00 51 1008.8
20260509132215 71 308 3.0 7.0 0.00 0.00 0.00 52 1008.8
20260509131717 70 337 5.0 9.0 0.00 0.00 0.00 53 1008.8
20260509131215 70 69 6.0 7.0 0.00 0.00 0.00 53 1008.8
20260509130712 70 279 4.0 8.0 0.00 0.00 0.00 53 1008.8
20260509130214 70 305 3.0 8.0 0.00 0.00 0.00 53 1008.8
20260509125713 70 314 3.0 10.0 0.00 0.00 0.00 53 1008.8
20260509124702 70 293 5.0 7.0 0.00 0.00 0.00 51 1008.8
20260509124201 70 351 4.0 8.0 0.00 0.00 0.00 51 1008.8
20260509123703 70 289 5.0 6.0 0.00 0.00 0.00 51 1008.8
20260509123205 70 314 3.0 4.0 0.00 0.00 0.00 51 1008.8
20260509122703 70 246 0.0 6.0 0.00 0.00 0.00 53 1008.8
20260509121206 69 320 4.0 4.0 0.00 0.00 0.00 54 1007.8
20260509120708 69 351 0.0 4.0 0.00 0.00 0.00 54 1007.8
20260509120209 69 347 0.0 7.0 0.00 0.00 0.00 53 1007.8
20260509115708 69 356 3.0 7.0 0.00 0.00 0.00 53 1007.8
20260509114712 69 337 4.0 7.0 0.00 0.00 0.00 52 1007.8
20260509114210 69 329 3.0 5.0 0.00 0.00 0.00 53 1007.8
20260509113713 69 306 3.0 4.0 0.00 0.00 0.00 53 1007.8
20260509113214 69 305 0.0 0.0 0.00 0.00 0.00 52 1007.8
20260509112713 69 306 0.0 0.0 0.00 0.00 0.00 51 1007.8
20260509112215 69 306 0.0 4.0 0.00 0.00 0.00 50 1007.8
20260509111717 69 306 0.0 5.0 0.00 0.00 0.00 50 1007.8
20260509111215 69 305 3.0 6.0 0.00 0.00 0.00 50 1007.8
20260509110717 69 304 3.0 7.0 0.00 0.00 0.00 49 1007.8
20260509110219 69 330 4.0 7.0 0.00 0.00 0.00 50 1007.8
20260509105718 69 268 3.0 6.0 0.00 0.00 0.00 51 1007.8
20260509104721 70 301 5.0 8.0 0.00 0.00 0.00 53 1007.8